SCP
0 0 0 0 0 0 0 0 0 0 0 0 0 0 0 0 0 0 0 0 0 0 1 1 1 1 1 1 1 1 1 1 1 1 0 0 0 0 0 0 0 0 0 0
0 0 0 0 0 0 0 0 0 0 0 0 0 0 0 0 0 0 0 0 0 0 1 1 1 1 1 1 1 1 1 1 1 1 0 0 0 0 0 0 0 0 0 0
0 0 0 0 0 0 0 0 0 0 0 0 0 0 0 0 0 0 0 0 0 0 1 1 1 1 1 1 1 1 1 1 1 1 1 0 0 0 0 0 0 0 0 0
0 0 0 0 0 0 0 0 0 0 0 0 0 0 0 0 0 0 0 0 0 0 1 1 1 1 1 1 1 1 1 1 1 1 1 1 0 0 0 0 0 0 0 0
0 0 0 0 0 0 0 0 0 0 0 0 0 0 0 0 0 0 0 0 0 0 1 1 1 1 1 1 1 1 1 1 1 1 1 1 1 0 0 0 0 0 0 0
0 0 0 0 0 0 0 0 0 0 0 0 0 0 0 0 0 0 0 0 0 0 0 1 1 1 1 1 1 1 1 1 1 1 1 1 1 0 0 0 0 0 0 0
0 0 0 0 0 0 0 0 0 0 0 0 0 0 0 0 0 0 0 0 0 0 0 1 1 1 1 1 1 1 1 1 1 1 1 1 1 0 0 0 0 0 0 0
0 0 0 0 0 0 0 0 0 0 0 0 0 0 0 0 0 0 0 0 0 0 0 0 0 0 0 0 1 1 1 1 1 1 1 1 1 0 0 0 0 0 0 0
0 0 0 0 0 0 0 0 0 0 0 0 0 0 0 0 0 0 0 0 0 0 0 0 0 0 0 0 0 0 0 0 0 0 0 0 0 0 0 0 0 0 0 0
0 0 0 0 0 0 0 0 0 0 0 0 0 0 0 0 0 0 0 0 0 0 0 0 0 0 0 0 0 0 0 0 0 0 0 0 0 0 0 0 0 0 0 0
0 0 0 0 0 0 0 0 0 0 0 0 0 0 0 0 0 0 0 0 0 0 0 0 0 0 0 0 0 0 0 0 0 0 0 0 0 0 0 0 0 0 0 0
0 0 0 0 0 0 0 0 0 0 0 0 0 0 0 0 0 0 0 0 0 0 0 0 0 0 0 0 0 0 0 0 0 0 0 0 0 0 0 0 0 0 0 0
0 0 0 0 0 0 0 0 0 0 0 0 0 0 0 0 0 0 0 0 0 0 0 0 0 0 0 0 0 0 0 0 0 0 0 0 0 0 0 0 0 0 0 0
0 0 0 0 0 0 0 0 0 0 0 0 0 0 0 0 0 0 0 0 0 0 0 0 0 0 0 0 0 0 0 0 0 0 0 0 0 0 0 0 0 0 0 0
0 0 0 0 0 0 0 0 0 0 0 0 0 0 0 0 0 0 0 0 0 0 0 0 0 0 0 0 0 0 0 0 0 0 0 0 0 0 0 0 0 0 0 0
0 0 0 0 0 0 0 0 0 0 0 0 0 0 0 0 0 0 0 0 0 0 0 0 0 0 0 0 0 0 0 0 0 0 0 0 0 0 0 0 0 0 0 0
0 0 0 0 0 0 0 0 0 0 0 0 0 0 0 0 0 0 0 0 0 0 0 0 0 0 0 0 0 0 0 0 0 0 0 0 0 0 0 0 0 0 0 0
0 0 0 0 0 0 0 0 0 0 0 0 0 0 0 0 0 0 0 0 0 0 0 0 0 0 0 0 0 0 0 0 0 0 0 0 0 0 0 0 0 0 0 0
0 0 0 0 0 0 0 0 0 0 0 0 0 0 0 0 0 0 0 0 0 0 0 0 0 0 0 0 0 0 0 0 0 0 0 0 0 0 0 0 0 0 0 0
0 0 0 0 0 0 0 0 0 0 0 0 0 0 0 0 0 0 0 0 0 0 0 0 0 0 0 0 0 0 0 0 0 0 0 0 0 0 0 0 0 0 0 0
0 0 0 0 0 0 0 0 0 0 0 0 0 0 0 0 0 0 0 0 0 0 0 0 0 0 0 0 0 0 0 0 0 0 0 0 0 0 0 0 0 0 0 0
0 0 0 0 0 0 0 0 0 0 0 0 0 0 0 0 0 0 0 0 0 0 0 0 0 0 0 0 0 0 0 0 0 0 0 0 0 0 0 0 0 0 0 0
0 0 0 0 0 0 0 0 0 0 0 0 0 0 0 0 0 0 0 0 0 0 0 0 0 0 0 0 0 0 0 0 0 0 0 0 0 0 0 0 0 0 0 0
0 0 0 0 0 0 0 0 0 0 0 0 0 0 0 0 0 0 0 0 0 0 0 0 0 0 0 0 0 0 0 0 0 0 0 0 0 0 0 0 0 0 0 0
0 0 0 0 0 0 0 0 0 0 0 0 0 0 0 0 0 0 0 0 0 0 0 0 0 0 0 0 0 0 0 0 0 0 0 0 0 0 0 0 0 0 0 0
0 0 0 0 0 0 0 0 0 0 0 0 0 0 0 0 0 0 0 0 0 0 0 0 0 0 0 0 0 0 0 0 0 0 0 0 0 0 0 0 0 0 0 0
Wind_Speed
5 5 6 8 8 6 4 2 3 5 3 1 3 4 3 3 5 6 6 8 10 11 9 9 10 12 12 11 12 12 12 12 10 8 8 7 7 6 5 5 7 7 7 7
4 4 8 6 5 4 3 2 4 5 2 0 2 3 2 2 5 7 8 8 9 7 6 8 9 11 13 14 13 13 12 12 12 10 8 5 5 5 5 5 6 7 7 7
7 5 6 7 5 5 4 5 4 4 4 3 1 4 3 2 1 2 3 5 6 8 9 9 9 10 11 12 14 13 13 13 12 10 6 5 3 3 4 5 6 7 8 8
5 5 5 5 6 7 5 6 6 3 0 3 2 2 5 3 3 3 4 4 4 5 7 7 8 9 10 11 11 11 12 12 12 12 10 11 9 7 7 6 6 7 8 8
7 5 6 7 8 9 7 3 3 2 3 0 1 2 7 2 3 5 4 4 3 4 6 7 8 9 9 8 9 9 10 11 12 12 13 13 9 7 5 5 7 7 7 7
5 4 6 8 6 8 5 5 6 5 5 1 2 3 6 4 5 5 3 3 3 4 5 6 6 6 6 7 8 9 10 11 11 13 13 13 13 10 9 9 8 7 5 6
3 3 4 4 3 2 5 6 4 4 3 4 1 2 8 6 5 4 4 3 3 3 4 5 6 6 5 6 7 8 10 11 11 12 13 13 13 12 12 11 10 8 6 5
5 5 5 6 8 7 6 10 8 5 5 4 1 4 7 3 3 2 2 2 2 2 3 3 4 5 5 6 6 7 8 9 10 11 11 10 11 8 8 9 9 9 7 7
7 6 4 5 6 11 7 5 7 8 3 0 4 5 7 2 2 1 0 1 2 3 2 3 4 5 5 5 5 6 7 6 8 9 9 9 10 9 9 9 8 7 6 7
9 4 3 2 5 3 7 10 7 7 7 3 3 4 5 5 4 2 1 2 2 2 3 3 3 4 3 3 3 4 5 6 6 7 8 8 9 10 9 9 9 9 8 8
6 4 2 2 4 7 5 5 6 5 5 7 3 7 6 6 5 4 3 2 2 2 2 2 3 3 4 4 3 3 4 5 6 6 6 7 7 8 8 8 9 9 8 9
5 6 1 3 3 3 6 8 9 7 4 5 5 8 3 4 4 3 2 2 2 2 2 2 2 3 4 4 3 3 4 5 5 5 5 6 7 7 8 9 9 9 9 9
7 7 3 3 3 2 3 4 5 7 6 5 5 7 2 1 1 2 2 2 2 3 3 2 2 3 3 4 3 3 3 3 4 5 5 5 6 7 8 8 8 8 9 8
7 6 7 8 7 4 3 3 5 7 6 5 7 6 2 2 2 2 2 2 2 2 2 2 2 2 2 2 3 3 2 3 3 4 5 5 6 6 6 7 7 8 8 8
6 5 2 2 3 4 3 5 6 5 8 8 7 6 6 5 4 2 2 3 3 3 2 2 2 1 1 2 2 3 2 3 3 4 4 4 5 5 5 5 6 7 7 8
4 5 3 2 1 3 3 2 4 3 4 4 3 4 2 2 4 3 3 4 4 2 1 1 1 1 1 1 2 2 2 3 3 3 3 4 4 5 5 5 5 5 5 5
2 5 5 1 1 3 0 2 3 3 2 5 6 5 3 3 4 3 2 3 3 2 2 1 0 0 1 1 1 2 2 3 3 3 3 4 4 5 6 6 6 5 5 4
4 5 4 3 3 4 5 1 1 4 2 1 3 3 4 5 5 5 3 3 2 2 2 2 1 1 1 1 1 2 3 3 4 3 3 3 4 4 5 5 5 5 4 4
4 6 5 4 3 1 3 1 2 3 1 1 5 6 6 7 6 5 5 4 3 3 2 2 2 1 2 2 2 3 3 3 3 3 3 3 4 5 5 5 5 4 4 4
5 5 6 5 5 6 6 1 1 3 1 2 5 7 6 4 3 1 3 4 5 5 3 3 3 4 3 2 3 4 3 3 2 1 2 2 4 5 5 5 5 4 5 4
4 4 3 4 3 5 3 1 2 4 5 3 5 6 5 3 3 4 4 5 6 6 6 5 6 5 5 4 4 4 4 3 2 3 3 3 4 5 5 5 5 5 5 5
2 3 3 4 4 6 1 1 4 4 1 3 5 6 7 7 8 7 7 6 6 6 7 7 6 6 6 5 5 6 5 4 4 5 6 5 5 5 5 6 6 6 6 6
2 3 3 4 4 1 1 1 1 1 3 3 5 7 9 8 8 7 7 7 7 7 7 6 7 7 7 7 6 7 5 5 7 8 8 8 8 7 7 7 6 6 5 5
0 1 2 1 0 1 2 2 2 3 3 4 7 8 9 10 9 9 8 7 7 7 7 6 8 9 8 7 7 6 5 6 9 10 9 8 9 9 9 7 6 6 5 5
1 1 1 1 1 2 3 3 4 6 8 9 9 8 9 11 10 10 9 7 7 7 7 7 8 8 7 7 8 7 6 8 10 10 9 9 8 9 10 10 8 8 7 5
2 3 4 4 4 3 2 2 5 8 8 9 11 10 9 10 12 11 9 8 8 8 8 8 8 8 7 8 8 7 7 7 9 9 8 7 7 7 7 9 10 16 13 16
Wind_Direction
143 120 186 195 184 180 169 182 266 267 278 306 275 274 265 197 174 184 192 196 200 208 200 182 184 180 178 180 182 183 183 178 174 176 177 180 187 184 184 188 181 181 182 177
99 221 209 180 174 174 186 239 272 295 334 263 286 301 281 201 202 197 197 206 208 197 177 178 179 181 184 185 187 186 187 183 182 187 182 182 175 179 185 185 182 184 184 180
169 218 177 163 169 181 207 204 230 255 341 4 23 335 324 298 264 227 224 224 211 193 186 182 179 183 184 189 190 190 190 189 186 179 163 155 139 137 168 183 186 189 186 185
204 227 166 170 190 174 237 223 211 219 122 298 58 290 289 289 287 255 246 235 215 193 175 178 182 184 190 193 190 190 189 190 185 176 175 176 180 186 190 185 184 182 186 187
216 197 180 198 204 174 209 200 181 184 164 232 12 169 281 313 276 269 259 247 222 191 178 182 188 191 192 188 189 188 188 191 187 183 185 185 187 187 173 171 176 180 185 188
215 206 187 200 201 181 162 78 59 53 82 188 231 166 269 248 238 264 264 254 219 191 178 179 179 178 184 183 186 183 187 194 189 187 189 190 187 180 173 178 183 184 182 186
246 246 223 176 139 130 125 100 45 15 26 245 257 188 247 251 239 241 251 249 215 182 170 172 170 169 182 185 185 184 187 194 190 191 193 192 190 185 185 185 187 185 183 189
185 254 224 186 173 167 167 144 155 178 204 264 321 232 253 258 269 271 238 216 146 139 160 172 177 170 179 190 187 185 189 195 190 191 194 190 188 187 190 190 186 189 191 191
174 238 263 207 171 145 141 169 158 127 136 103 283 286 301 267 312 323 353 124 148 146 144 163 164 162 168 184 188 185 187 188 189 191 190 190 190 190 192 188 185 187 187 185
156 206 273 225 101 70 141 143 112 124 144 205 278 274 255 258 257 253 225 194 174 149 148 154 159 155 156 164 176 173 175 184 193 191 194 196 195 190 189 185 185 186 185 181
141 159 305 59 152 164 116 109 111 114 146 153 212 263 230 219 213 213 217 203 178 168 164 163 160 141 128 122 141 157 165 174 180 186 189 190 189 188 185 187 188 186 182 178
145 127 209 264 265 178 149 157 145 146 185 163 167 258 278 213 207 198 198 178 157 148 149 149 144 129 124 129 136 153 165 173 178 180 182 185 182 184 188 191 187 181 181 181
139 122 107 353 351 41 109 137 138 122 117 145 164 255 329 52 178 195 174 152 130 120 119 123 125 123 135 136 139 152 165 173 169 170 175 176 176 181 186 186 179 177 179 178
122 118 157 184 204 182 154 147 146 123 138 178 210 231 259 223 217 206 161 131 113 109 114 114 113 114 119 129 139 147 149 140 146 158 170 175 179 178 177 176 173 175 177 175
107 125 158 202 194 155 154 165 166 160 170 174 210 211 235 214 203 187 138 109 90 85 103 117 122 120 119 121 128 130 127 124 139 151 162 172 170 162 157 159 165 168 172 175
79 123 113 44 50 119 96 123 163 160 157 168 155 227 241 131 113 108 104 102 97 87 91 115 105 114 146 158 143 129 127 131 136 150 162 157 154 154 156 158 159 163 166 166
83 117 112 166 319 71 94 238 181 160 167 163 186 211 147 123 118 116 100 97 104 80 52 73 151 177 183 194 165 154 145 136 140 143 142 148 156 160 161 159 156 162 164 159
130 106 114 126 103 184 232 305 143 125 95 135 137 127 130 119 102 76 72 90 74 52 50 42 32 46 59 92 110 126 134 135 141 141 146 151 153 155 152 152 155 155 147 151
135 128 116 120 140 230 271 223 137 138 210 193 143 131 120 120 90 53 44 61 61 43 48 48 48 73 73 79 101 117 114 122 129 144 157 161 158 154 150 155 151 143 136 133
65 92 112 124 140 207 229 207 179 111 278 201 149 145 143 128 121 118 44 55 54 40 39 46 55 68 71 73 87 108 108 108 115 129 131 141 150 154 155 153 141 132 131 132
57 59 102 137 160 247 253 284 121 168 221 159 144 146 138 120 134 119 85 67 59 51 47 48 58 59 52 57 83 90 83 76 70 81 86 92 114 126 130 124 118 121 121 118
145 136 156 142 163 232 306 118 175 203 125 117 124 125 118 112 104 98 88 77 68 60 54 54 63 56 46 52 76 79 65 56 72 79 77 77 84 97 104 108 107 110 115 113
161 183 177 180 197 251 354 279 308 140 127 117 121 124 123 115 108 99 88 79 69 62 56 56 68 63 49 45 64 75 59 63 75 75 72 72 76 75 78 88 93 91 94 99
282 129 128 129 260 44 33 35 44 82 112 112 118 122 120 117 114 105 95 83 72 64 57 59 67 64 51 44 54 62 63 73 80 79 75 74 76 73 68 67 69 76 78 88
212 148 124 146 155 90 44 45 77 86 96 101 98 100 109 114 110 105 98 88 81 73 64 63 67 66 54 50 52 50 58 74 78 76 76 75 77 82 75 68 58 63 54 69
208 180 174 203 193 158 152 95 100 101 102 107 106 96 95 105 107 101 93 86 81 74 67 67 66 65 59 59 55 48 55 76 85 81 75 76 79 82 86 89 76 60 66 64